Location: Wheeling
(40.0640°N, 80.7210°W)
Time: 14:40:12
(UTC-05:00)

ITAMSAT 1 - Pass Details

Date: 31 October 2021
Orbit: 784 x 796 km, 98.9° (Epoch: 01 December)

Event Time Altitude Azimuth Distance (km) Brightness Sun altitude
Rises 20:40:16 0° 193° (SSW) 3,259 11.0 -27.1°
Reaches altitude 10° 20:42:52 10° 205° (SSW) 2,337 10.3 -27.6°
Maximum altitude 20:47:17 28° 264° (W) 1,431 9.6 -28.4°
Drops below altitude 10° 20:51:44 10° 323° (NW) 2,357 10.6 -29.3°
Sets 20:54:23 0° 335° (NNW) 3,292 11.3 -29.8°
